Location: Newark
(42.8481°N, 0.4872°E)
Time: 09:16:58
(UTC+00:00)

Vanguard 1 - Pass Details

Date: 30 October 2020
Orbit: 650 x 3833 km, 34.2° (Epoch: 26 November)

Event Time Altitude Azimuth Distance (km) Brightness Sun altitude
Rises 19:34:12 0° 282° (WNW) 7,434 15.7 -30.1°
Reaches altitude 10° 19:42:06 10° 267° (W) 5,842 14.8 -31.5°
Maximum altitude 19:51:13 17° 234° (SW) 4,385 13.7 -33.1°
Drops below altitude 10° 19:58:04 10° 198° (SSW) 4,193 13.3 -34.4°
Enters shadow 20:02:15 - 179° (S) 4,644 13.4 -35.1°
Sets 20:02:20 0° 179° (S) 4,659 - -35.1°
